Location: Newark
(27.9675°N, 86.8869°E)
Time: 09:45:16
(UTC+00:00)

A-11 Canister half - Visible Passes

Search period start: 18 October 2019 00:00
Search period end: 28 October 2019 00:00
Orbit: 1514 x 1686 km, 47.2° (Epoch: 17 October)

Date Brightness Start Highest point End Pass type
(mag) Time Alt. Az. Time Alt. Az. Time Alt. Az.
18 Oct 10.3 20:24:02 29° NNE 20:24:02 29° NNE 20:28:15 10° NE visible
18 Oct 10.1 22:22:15 23° NW 22:25:20 27° NNW 22:33:08 10° NE visible
19 Oct 10.7 20:02:28 22° NE 20:02:28 22° NE 20:05:21 10° NE visible
19 Oct 10.0 22:00:40 27° NNW 22:02:15 28° NNW 22:10:10 10° NE visible
20 Oct 11.0 19:40:52 16° NE 19:40:52 16° NE 19:42:27 10° NE visible
20 Oct 10.0 21:39:04 29° NNW 21:39:10 29° NNW 21:47:13 10° NE visible
20 Oct 10.4 23:39:44 10° NW 23:47:16 25° N 23:54:36 10° ENE visible
21 Oct 11.3 19:19:15 11° NE 19:19:15 11° NE 19:19:32 10° NE visible
21 Oct 10.1 21:17:27 29° N 21:17:27 29° N 21:24:17 10° NE visible
21 Oct 10.4 23:16:39 10° NW 23:24:10 24° N 23:31:28 10° ENE visible
22 Oct 10.3 20:55:49 27° N 20:55:49 27° N 21:01:21 10° NE visible
22 Oct 10.4 22:54:01 11° NW 23:01:04 24° N 23:08:21 10° ENE visible
23 Oct 10.5 20:34:11 24° NNE 20:34:11 24° NNE 20:38:26 10° NE visible
23 Oct 10.4 22:32:23 15° NW 22:37:58 24° N 22:45:15 10° NE visible
24 Oct 10.8 20:12:34 20° NNE 20:12:34 20° NNE 20:15:30 10° NE visible
24 Oct 10.4 22:10:46 18° NNW 22:14:51 24° N 22:22:08 10° NE visible
25 Oct 11.0 19:50:57 15° NNE 19:50:57 15° NNE 19:52:35 10° NE visible
25 Oct 10.3 21:49:09 21° NNW 21:51:43 24° N 21:59:03 10° NE visible
25 Oct 10.0 23:50:31 10° NW 23:59:23 39° NNE 00:07:57 10° E visible
26 Oct 11.3 19:29:20 11° NE 19:29:20 11° NE 19:29:40 10° NE visible
26 Oct 10.3 21:27:32 23° N 21:28:37 24° N 21:35:57 10° NE visible
26 Oct 10.0 23:27:33 10° NW 23:36:22 37° NNE 23:44:51 10° E visible
27 Oct 10.4 21:05:57 24° N 21:05:57 24° N 21:12:53 10° NE visible
27 Oct 10.1 23:04:36 10° NW 23:13:20 36° NNE 23:21:46 10° E visible
